This demonstration page uses our WeatherBlox Daily Observations layout. Learn more.

Hourly Observations for July 25, 2019

Temp ( °F °C ) Dew Point ( °F °C ) Humidity (%) Winds ( mph kmh ) Pressure ( in mb ) Visibility ( mi km ) Precip ( " mm )
12:15 am 00:15 Clear 69 20.5 60 15.3 72 72 SSE 10 17 30 1016 10 16.09344 0 0
12:35 am 00:35 Clear 68 20.2 60 15.3 74 74 SSE 9 15 29.97 1015 10 16.09344 0 0
12:55 am 00:55 Clear 69 20.4 59 15.1 72 72 S 10 17 30 1016 10 16.09344 0 0
1:15 am 01:15 Clear 69 20.7 59 14.9 70 70 SSE 10 17 29.97 1015 10 16.09344 0 0
1:35 am 01:35 Clear 69 20.8 58 14.7 68 68 S 12 19 29.97 1015 10 16.09344 0 0
1:55 am 01:55 Clear 69 20.5 58 14.6 69 69 S 9 15 29.97 1015 10 16.09344 0 0
2:15 am 02:15 Clear 69 20.3 58 14.6 70 70 S 9 15 29.97 1015 10 16.09344 0 0
2:35 am 02:35 Clear 68 20 58 14.6 71 71 S 12 19 30 1016 10 16.09344 0 0
2:55 am 02:55 Clear 68 20 58 14.5 71 71 S 10 17 30 1016 10 16.09344 0 0
3:15 am 03:15 Clear 68 20 58 14.4 70 70 S 9 15 30 1016 10 16.09344 0 0
3:35 am 03:35 Clear 67 19.6 58 14.3 72 72 S 7 11 30 1016 10 16.09344 0 0
3:55 am 03:55 Clear 67 19.2 58 14.3 73 73 S 7 11 30 1016 10 16.09344 0 0
4:15 am 04:15 Clear 65 18.6 58 14.5 77 77 S 6 9 30 1016 10 16.09344 0 0
4:35 am 04:35 Clear 65 18.5 58 14.5 78 78 SSE 8 13 30 1016 10 16.09344 0 0
4:55 am 04:55 Clear 65 18.6 57 14.1 75 75 SSE 8 13 29.97 1015 10 16.09344 0 0
5:15 am 05:15 Clear 66 18.8 57 13.8 73 73 S 10 17 29.97 1015 10 16.09344 0 0
5:35 am 05:35 Clear 67 19.2 56 13.6 70 70 S 12 19 29.97 1015 10 16.09344 0 0
5:55 am 05:55 Clear 67 19.2 56 13.5 70 70 SSE 12 19 29.97 1015 10 16.09344 0 0
6:15 am 06:15 Clear 67 19.2 56 13.5 70 70 S 14 22 29.97 1015 10 16.09344 0 0
6:35 am 06:35 Sunny 66 18.9 56 13.5 71 71 S 14 22 29.97 1015 10 16.09344 0 0
6:55 am 06:55 Sunny 65 18.6 57 13.7 73 73 S 12 19 30 1016 10 16.09344 0 0
7:15 am 07:15 Sunny 65 18.6 56 13.6 73 73 S 10 17 30 1016 10 16.09344 0 0
7:35 am 07:35 Sunny 66 19 56 13.6 71 71 S 12 19 30 1016 10 16.09344 0 0
7:55 am 07:55 Sunny 66 19 57 14 73 73 S 12 19 30 1016 10 16.09344 0 0
8:15 am 08:15 Sunny 66 19 57 14.1 73 73 S 15 24 29.97 1015 10 16.09344 0 0
8:35 am 08:35 Sunny 67 19.3 58 14.2 72 72 S 10 17 30 1016 10 16.09344 0 0
8:55 am 08:55 Sunny 69 20.3 58 14.6 70 70 S 8 13 29.97 1015 10 16.09344 0 0
9:15 am 09:15 Sunny 72 22.3 58 14.7 62 62 S 14 22 29.97 1015 10 16.09344 0 0
9:35 am 09:35 Sunny 71 21.5 57 14.1 63 63 S 15 24 29.97 1015 10 16.09344 0 0
9:55 am 09:55 Sunny 71 21.5 58 14.2 63 63 S 13 20 29.97 1015 10 16.09344 0 0
10:15 am 10:15 Sunny 71 21.7 57 14.1 62 62 S 17 28 29.97 1015 10 16.09344 0 0
10:35 am 10:35 Sunny 74 23.2 57 14 56 56 S 20 31 29.94 1014 10 16.09344 0 0
10:55 am 10:55 Sunny 74 23.5 58 14.3 56 56 S 15 24 29.91 1013 10 16.09344 0 0
11:15 am 11:15 Sunny 75 23.9 58 14.7 56 56 S 13 20 29.91 1013 10 16.09344 0 0
11:35 am 11:35 Sunny 77 24.9 59 14.9 54 54 S 16 26 29.91 1013 10 16.09344 0 0
11:55 am 11:55 Sunny 77 24.8 59 14.9 54 54 S 15 24 29.91 1013 10 16.09344 0 0
12:15 pm 12:15 Sunny 76 24.7 59 15.2 56 56 S 12 19 29.91 1013 10 16.09344 0 0
12:35 pm 12:35 Sunny 76 24.7 60 15.7 57 57 S 12 19 29.91 1013 10 16.09344 0 0
12:55 pm 12:55 Partly Cloudy 77 25.1 61 15.9 57 57 S 10 17 29.91 1013 10 16.09344 0 0
1:15 pm 13:15 Sunny 77 25.1 61 16 57 57 S 9 15 29.91 1013 10 16.09344 0 0
1:35 pm 13:35 Partly Cloudy 77 25 61 16.3 59 59 S 8 13 29.91 1013 10 16.09344 0 0
1:55 pm 13:55 Mostly Cloudy 76 24.7 62 16.4 60 60 S 9 15 29.91 1013 10 16.09344 0 0
2:15 pm 14:15 Mostly Cloudy 78 25.6 64 17.5 61 61 SSE 7 11 29.91 1013 10 16.09344 0 0
2:35 pm 14:35 Partly Cloudy 80 26.4 65 18.2 61 61 SSE 10 17 29.91 1013 10 16.09344 0 0
2:55 pm 14:55 Sunny 80 26.8 64 17.7 57 57 SSE 10 17 29.91 1013 10 16.09344 0 0
3:15 pm 15:15 Sunny 82 27.8 64 17.6 54 54 S 10 17 29.88 1012 10 16.09344 0 0
3:35 pm 15:35 Sunny 83 28.6 65 18.3 54 54 SSE 12 19 29.85 1011 10 16.09344 0 0
3:55 pm 15:55 Sunny 84 28.9 64 17.8 51 51 SSE 13 20 29.85 1011 10 16.09344 0 0
4:15 pm 16:15 Sunny 83 28.6 64 17.9 52 52 SSE 14 22 29.85 1011 10 16.09344 0 0
4:35 pm 16:35 Sunny 84 29 66 18.9 54 54 SSE 9 15 29.85 1011 10 16.09344 0 0
4:55 pm 16:55 Partly Cloudy 84 29 65 18.4 53 53 S 14 22 29.85 1011 10 16.09344 0 0
5:15 pm 17:15 Partly Cloudy 84 29 65 18.3 52 52 S 13 20 29.85 1011 10 16.09344 0 0
5:35 pm 17:35 Partly Cloudy 85 29.4 64 17.5 49 49 SSE 12 19 29.85 1011 10 16.09344 0 0
5:55 pm 17:55 Sunny 83 28.5 63 17.2 50 50 SSE 13 20 29.85 1011 10 16.09344 0 0
6:15 pm 18:15 Sunny 83 28.1 63 17 51 51 SSE 14 22 29.85 1011 10 16.09344 0 0
6:35 pm 18:35 Sunny 82 27.5 64 17.8 56 56 SSE 9 15 29.85 1011 10 16.09344 0 0
6:55 pm 18:55 Sunny 81 27.1 65 18.2 58 58 SSE 8 13 29.85 1011 10 16.09344 0 0
7:15 pm 19:15 Sunny 81 27.1 65 18.3 59 59 SSE 9 15 29.85 1011 10 16.09344 0 0
7:35 pm 19:35 Sunny 81 27.2 65 18.2 58 58 SSE 8 13 29.83 1010 10 16.09344 0 0
7:55 pm 19:55 Sunny 80 26.5 64 18 60 60 SSE 8 13 29.83 1010 10 16.09344 0 0
8:15 pm 20:15 Sunny 78 25.8 64 17.6 61 61 SSE 7 11 29.85 1011 10 16.09344 0 0
8:35 pm 20:35 Sunny 76 24.7 64 17.5 64 64 SSE 6 9 29.88 1012 10 16.09344 0 0
8:55 pm 20:55 Sunny 76 24.2 63 17.2 65 65 SSE 8 13 29.88 1012 10 16.09344 0 0
9:15 pm 21:15 Clear 74 23.3 63 17 68 68 SSE 8 13 29.88 1012 10 16.09344 0 0
9:35 pm 21:35 Clear 73 22.8 63 17.1 70 70 SSE 7 11 29.91 1013 10 16.09344 0 0
9:55 pm 21:55 Clear 73 22.5 63 17 71 71 SSE 6 9 29.91 1013 10 16.09344 0 0
10:15 pm 22:15 Clear 73 22.5 62 16.7 70 70 S 7 11 29.91 1013 10 16.09344 0 0
10:35 pm 22:35 Clear 73 22.5 62 16.5 69 69 S 8 13 29.91 1013 10 16.09344 0 0
10:55 pm 22:55 Clear 72 22.4 61 16.2 68 68 S 7 11 29.91 1013 10 16.09344 0 0
11:15 pm 23:15 Clear 72 22.1 61 16 68 68 SSE 7 11 29.91 1013 10 16.09344 0 0
11:35 pm 23:35 Clear 71 21.5 61 16.1 71 71 SSE 5 7 29.94 1014 10 16.09344 0 0
11:55 pm 23:55 Clear 69 20.7 61 16.2 76 76 S 5 7 29.94 1014 10 16.09344 0 0

Powered by AerisWeather